Location: *
(55.5817°S, 142.4781°W)
Time: 07:16:33
(UTC+00:00)

ADEOS Rocket - Pass Details

Date: 29 April 2025
Orbit: 857 x 1306 km, 98.7° (Epoch: 23 May)

Event Time Altitude Azimuth Distance (km) Brightness Sun altitude
Exits shadow 12:26:29 49° 154° (SSE) 1,347 3.8 -36.6°
Drops below altitude 10° 12:31:56 10° 192° (SSW) 3,034 5.7 -36.0°
Sets 12:34:43 0° 195° (SSW) 4,063 6.4 -35.6°
